Wind_Speed
22 8 16 14 15 10 15 14 16 13 11 10 9 10 13 22 17 18 34 37 38 40 36 38 36 35 33 32 32 34 31 27 23 25 20 17 19 19 18 14 14 14 15 12
11 19 14 13 12 18 20 19 20 15 19 10 18 12 14 14 21 24 31 36 39 40 40 38 39 38 36 35 35 35 34 31 27 26 23 19 17 18 14 14 17 16 13 11
18 9 17 18 18 19 22 21 16 8 5 5 13 1 8 11 18 26 28 41 42 45 44 42 44 41 40 38 37 36 35 32 32 25 24 20 15 18 14 17 18 16 12 10
14 18 19 22 21 20 18 23 20 18 13 10 14 6 14 16 17 16 28 37 40 44 47 47 46 45 44 42 39 37 36 34 35 32 28 24 23 21 16 11 15 16 15 11
19 18 21 20 24 19 23 14 19 20 15 14 13 6 7 18 18 20 18 36 40 45 48 49 51 50 47 45 43 41 38 36 33 37 35 29 22 22 17 13 14 14 18 12
18 18 19 20 16 21 14 15 18 17 11 6 19 12 9 8 21 15 11 24 42 43 49 49 52 51 49 46 45 44 41 39 34 30 34 31 25 22 22 21 21 20 20 15
17 23 17 21 16 17 20 11 12 10 11 10 14 16 10 12 12 21 24 32 35 47 46 48 48 50 53 50 48 47 45 42 38 32 29 36 31 28 24 22 21 22 19 19
14 17 23 13 22 12 18 17 13 12 12 10 9 10 10 18 19 41 35 28 34 34 47 49 52 55 56 54 51 49 49 44 41 36 32 32 37 32 31 27 24 24 24 20
16 16 8 22 18 20 9 20 13 5 9 6 8 10 10 20 15 21 27 31 24 25 32 52 56 55 57 56 55 52 50 47 42 39 34 33 37 40 34 35 30 26 24 21
13 7 20 16 23 16 19 6 14 13 15 20 15 11 9 10 19 18 19 22 30 24 32 40 56 57 56 58 56 52 51 49 45 41 37 33 37 38 40 35 39 32 27 25
25 18 17 14 20 21 8 18 10 8 12 11 11 16 6 11 20 20 20 37 42 40 51 55 54 58 58 56 56 55 53 50 47 43 39 38 35 39 38 41 38 40 30 28
23 17 17 25 19 24 25 16 10 8 5 5 7 14 8 13 16 26 27 31 35 42 60 53 52 55 55 55 54 57 55 54 49 45 41 39 38 39 41 41 43 41 40 36
18 20 12 19 17 21 26 19 17 15 5 14 5 17 16 11 9 23 9 14 26 36 27 47 51 51 56 56 53 55 57 55 51 47 44 41 41 42 42 43 43 43 42 41
9 20 30 19 21 5 10 22 19 19 13 13 22 11 12 5 9 11 27 27 20 28 30 34 48 52 58 59 56 55 56 55 51 49 47 45 45 44 44 43 43 44 44 43
2 16 22 27 17 14 24 14 26 23 22 13 14 15 13 13 10 11 32 31 32 24 18 29 46 52 55 56 58 55 55 57 51 49 47 47 46 46 44 45 45 43 45 45
11 7 19 18 29 27 26 17 20 28 23 19 13 15 5 8 17 17 18 35 12 8 22 24 38 56 56 56 57 56 55 55 54 48 45 44 46 46 45 45 46 45 42 43
10 4 8 13 9 14 23 31 21 11 17 18 18 15 7 9 4 5 12 20 30 27 17 24 24 32 43 52 48 54 55 57 56 52 47 44 44 45 45 46 46 45 42 38
21 15 8 5 7 11 10 12 17 15 8 15 10 11 10 10 19 13 9 6 6 15 22 23 28 27 30 38 40 43 55 58 57 55 52 48 45 43 42 43 45 42 38 37
17 11 6 5 10 1 7 7 5 7 11 5 7 9 8 18 16 10 10 19 21 26 22 14 12 25 27 31 34 42 53 58 58 57 55 51 48 45 44 45 43 38 35 36
16 14 9 3 7 16 3 6 6 3 3 5 11 9 9 6 3 4 15 9 4 6 24 24 28 21 23 28 33 34 43 54 58 57 57 54 52 48 48 47 41 36 35 32
4 6 10 4 4 4 2 5 8 9 7 6 15 11 10 5 3 10 16 18 15 11 11 30 39 33 26 29 32 34 38 49 50 57 53 52 49 48 48 43 39 36 33 31
5 5 4 3 3 3 8 3 8 6 9 13 10 9 9 7 6 7 12 17 19 7 8 12 24 29 34 32 31 35 40 39 47 51 41 43 40 42 43 39 37 32 31 28
3 2 5 10 3 2 15 9 22 15 15 10 7 9 6 12 13 21 17 13 6 3 5 6 13 18 24 31 34 36 39 42 39 39 36 34 35 35 35 36 32 28 26 24
5 9 4 8 7 3 7 6 25 30 25 24 24 26 26 30 28 25 23 20 17 13 10 11 13 14 14 20 31 35 38 36 33 36 34 33 35 35 32 29 24 23 21 19
2 8 8 6 15 13 19 8 11 11 15 22 25 28 30 31 30 27 25 22 18 15 16 20 22 23 21 18 21 27 30 32 35 36 35 33 33 33 28 24 21 17 16 15
4 1 3 3 8 4 8 28 17 29 30 24 28 30 29 27 25 22 26 22 19 15 8 12 18 21 21 23 25 27 29 32 35 28 27 28 29 26 23 21 22 17 14 14
Wind_Direction
214 213 224 218 217 226 245 248 252 253 199 154 143 161 190 183 190 191 173 178 183 192 199 197 195 199 199 202 202 206 208 212 219 216 205 197 196 212 220 219 222 238 259 267
220 222 222 231 224 223 243 252 261 293 150 135 166 182 222 214 204 195 184 180 183 188 194 199 195 196 202 205 206 208 211 208 216 220 214 212 211 225 226 221 224 235 255 276
218 225 216 228 230 219 230 242 255 232 17 331 173 358 230 229 186 201 202 184 185 188 193 196 196 198 202 205 209 211 210 207 212 214 210 213 228 213 226 221 218 229 246 257
227 225 221 218 232 224 224 234 247 256 196 204 171 208 229 211 211 208 204 186 188 190 194 197 197 198 202 207 210 214 213 212 212 215 215 223 220 211 211 222 218 229 235 232
224 214 226 223 223 227 234 230 240 250 256 144 247 248 208 200 213 214 193 189 192 191 192 197 200 201 202 205 209 214 215 216 219 217 222 220 216 213 200 227 228 236 225 217
236 229 228 235 228 224 238 233 248 253 251 193 209 194 243 184 191 187 188 199 193 193 196 199 204 203 202 205 209 212 214 216 220 221 218 215 207 206 212 214 228 225 206 224
231 237 236 223 230 216 221 220 235 245 241 240 182 193 210 212 187 176 188 205 207 195 194 195 197 198 202 203 207 211 213 214 217 221 216 212 207 202 205 218 221 218 221 233
221 233 228 222 219 210 213 216 223 218 228 246 227 202 218 205 212 195 188 207 202 199 195 195 198 204 204 203 206 211 212 214 215 218 217 214 211 209 207 211 219 228 235 235
206 236 222 226 235 214 228 216 228 253 254 257 233 254 258 213 198 189 184 174 202 241 206 197 199 205 205 203 206 210 214 213 215 217 217 215 212 214 212 208 218 226 230 240
245 247 223 240 224 235 213 194 210 226 229 244 251 245 237 190 180 173 182 186 201 219 209 205 200 202 209 209 206 208 217 216 215 216 219 220 216 215 217 216 216 218 221 225
222 243 257 231 215 215 216 222 228 201 226 234 240 250 246 188 179 175 186 197 197 208 192 208 200 200 207 208 205 206 212 215 215 216 218 223 223 220 219 221 222 220 219 216
204 217 240 249 265 206 215 208 198 220 260 251 236 254 272 223 198 185 189 199 208 196 205 208 196 198 199 205 205 206 210 213 217 218 219 224 227 226 222 222 224 224 223 225
199 214 223 250 259 254 211 211 202 219 184 238 211 248 256 246 172 153 169 237 241 223 209 192 191 191 196 201 203 206 210 214 216 218 222 226 226 227 228 225 226 227 226 225
272 206 211 222 235 229 217 208 199 200 221 235 241 264 279 242 182 171 170 201 224 244 214 193 188 192 198 199 203 205 209 212 215 219 223 226 228 228 230 231 228 230 230 230
286 252 208 214 217 227 241 220 203 210 210 205 234 233 241 238 200 187 175 202 228 251 211 227 186 190 195 195 204 208 210 209 214 217 222 227 229 231 231 232 236 232 232 236
340 298 219 207 210 223 244 245 225 211 216 227 233 248 206 253 223 190 216 189 202 249 188 189 181 190 198 203 205 208 211 211 209 217 222 225 227 230 231 232 234 238 234 234
280 314 304 206 182 207 231 234 246 239 211 202 221 237 231 266 228 194 215 230 198 256 230 192 189 184 200 204 208 211 214 211 210 214 220 222 225 227 231 232 234 235 237 237
264 283 285 184 131 213 247 206 225 242 245 209 200 178 198 203 238 233 232 266 232 226 256 234 202 210 195 199 211 219 215 213 213 215 218 221 224 227 229 231 233 233 236 238
243 252 276 178 192 325 270 249 199 202 253 232 185 209 213 223 217 232 248 224 222 213 253 241 228 211 211 208 204 214 213 214 213 215 218 222 225 224 226 227 228 229 231 232
241 247 247 225 171 215 201 228 264 71 197 86 96 86 81 66 86 228 356 9 28 270 227 229 229 262 222 216 213 209 214 210 211 216 219 220 223 224 225 225 224 225 227 230
297 285 248 190 189 281 100 278 248 166 210 75 91 90 80 100 141 336 323 312 305 329 247 222 222 232 250 225 215 214 215 210 218 217 216 218 221 222 223 222 221 222 222 225
34 13 298 257 158 218 337 231 181 167 97 95 79 87 87 55 14 336 320 309 307 262 259 268 232 231 232 237 218 214 215 222 211 210 210 209 213 214 214 214 214 219 220 217
228 190 306 310 115 317 64 77 42 87 92 51 69 56 104 46 50 61 57 50 79 111 120 145 182 203 216 219 222 221 215 208 203 198 202 202 202 201 203 203 215 210 206 207
21 12 276 313 34 73 261 70 59 64 47 82 82 80 97 86 75 68 76 76 81 99 124 152 174 166 172 194 200 203 193 193 186 183 188 191 194 189 193 214 207 202 205 200
349 310 320 279 13 352 32 194 178 143 68 66 79 88 88 92 82 81 74 71 80 97 119 137 148 157 158 163 164 169 172 174 175 178 181 191 193 191 186 182 182 191 198 205
150 119 327 16 337 303 352 38 80 113 107 94 85 78 77 86 87 90 80 79 82 80 111 130 121 127 129 145 149 159 167 173 177 182 190 186 181 176 177 181 170 174 185 186
Height
1451 1461 1461 1459 1457 1458 1458 1460 1460 1445 1438 1449 1462 1469 1466 1465 1474 1481 1480 1486 1493 1500 1506 1510 1514 1518 1522 1526 1529 1533 1537 1539 1542 1545 1549 1553 1556 1559 1561 1563 1565 1566 1568 1568
1452 1453 1448 1449 1450 1454 1454 1457 1455 1445 1429 1445 1455 1467 1461 1459 1457 1467 1475 1479 1484 1492 1499 1504 1509 1513 1516 1520 1524 1528 1532 1536 1539 1542 1546 1550 1553 1555 1558 1560 1562 1563 1565 1565
1446 1440 1442 1444 1446 1450 1450 1452 1449 1454 1442 1442 1457 1474 1469 1454 1454 1461 1469 1471 1477 1481 1489 1495 1501 1505 1510 1513 1517 1522 1527 1532 1535 1539 1544 1548 1551 1552 1554 1556 1558 1559 1561 1562
1436 1432 1434 1439 1441 1440 1455 1433 1438 1441 1452 1471 1453 1489 1476 1456 1454 1455 1461 1465 1470 1475 1480 1486 1492 1498 1502 1506 1511 1516 1522 1527 1532 1535 1539 1543 1545 1547 1549 1552 1555 1557 1559 1559
1424 1425 1428 1432 1432 1430 1433 1432 1435 1436 1443 1456 1460 1477 1460 1452 1459 1455 1454 1458 1462 1466 1472 1477 1482 1487 1492 1498 1503 1508 1515 1521 1526 1531 1534 1539 1541 1544 1547 1549 1551 1553 1555 1556
1414 1412 1414 1418 1418 1420 1422 1432 1433 1433 1440 1476 1454 1463 1461 1452 1447 1447 1445 1450 1454 1459 1463 1468 1472 1479 1486 1491 1495 1500 1507 1513 1518 1524 1529 1533 1537 1540 1543 1545 1547 1549 1551 1553
1412 1409 1405 1407 1418 1415 1420 1439 1464 1473 1465 1465 1436 1451 1441 1424 1427 1427 1432 1437 1445 1449 1456 1462 1468 1473 1478 1482 1487 1492 1499 1505 1511 1517 1522 1527 1531 1535 1539 1540 1542 1545 1547 1549
1427 1430 1401 1394 1403 1417 1415 1426 1447 1482 1470 1456 1429 1447 1428 1405 1406 1411 1420 1429 1439 1442 1448 1453 1458 1461 1466 1473 1479 1484 1489 1497 1504 1509 1515 1520 1525 1530 1533 1537 1539 1541 1543 1545
1416 1414 1386 1388 1389 1397 1414 1418 1413 1443 1438 1454 1430 1417 1402 1397 1403 1410 1415 1421 1432 1437 1441 1444 1449 1453 1458 1465 1469 1475 1481 1489 1496 1501 1508 1513 1518 1522 1526 1531 1535 1537 1540 1542
1394 1416 1388 1384 1385 1386 1393 1398 1430 1423 1460 1460 1434 1429 1427 1403 1402 1405 1409 1410 1416 1421 1431 1436 1438 1445 1449 1453 1461 1469 1473 1479 1488 1496 1501 1506 1512 1515 1520 1525 1529 1532 1536 1538
1385 1397 1394 1380 1382 1393 1398 1400 1408 1413 1421 1445 1453 1424 1390 1392 1389 1397 1398 1399 1401 1404 1414 1424 1428 1434 1438 1446 1454 1460 1466 1473 1480 1487 1494 1499 1504 1509 1514 1518 1522 1527 1531 1533
1368 1384 1400 1384 1368 1364 1371 1385 1400 1426 1437 1426 1430 1417 1375 1379 1382 1379 1383 1393 1396 1398 1401 1414 1419 1425 1433 1439 1446 1452 1459 1465 1471 1478 1486 1491 1496 1501 1506 1510 1514 1519 1524 1527
1354 1368 1399 1391 1374 1362 1366 1371 1378 1389 1410 1420 1439 1408 1375 1375 1381 1382 1396 1398 1396 1395 1397 1404 1411 1418 1425 1431 1436 1444 1451 1457 1465 1472 1477 1484 1489 1493 1496 1502 1506 1511 1516 1520
1350 1342 1357 1374 1368 1365 1372 1365 1368 1382 1404 1404 1397 1405 1388 1373 1379 1374 1376 1385 1394 1395 1393 1397 1403 1409 1416 1421 1426 1434 1441 1448 1456 1462 1468 1474 1478 1483 1488 1493 1499 1503 1507 1511
1349 1352 1331 1338 1347 1350 1354 1356 1358 1370 1372 1399 1390 1396 1383 1376 1373 1373 1375 1381 1385 1385 1386 1388 1395 1403 1410 1416 1421 1427 1433 1440 1446 1453 1458 1462 1469 1475 1482 1486 1490 1496 1500 1503
1361 1353 1329 1335 1333 1343 1351 1346 1347 1351 1359 1367 1375 1377 1366 1366 1370 1367 1371 1370 1380 1385 1383 1388 1388 1393 1400 1408 1414 1419 1425 1432 1438 1444 1447 1455 1461 1467 1472 1478 1482 1486 1492 1497
1374 1365 1354 1342 1332 1340 1361 1334 1344 1345 1342 1353 1368 1362 1363 1365 1367 1368 1367 1370 1369 1378 1385 1384 1388 1392 1397 1402 1407 1412 1415 1423 1430 1436 1441 1446 1452 1458 1463 1469 1475 1479 1485 1491
1363 1363 1356 1342 1341 1373 1327 1322 1327 1338 1337 1336 1342 1349 1352 1354 1357 1363 1367 1368 1370 1374 1377 1385 1384 1388 1390 1396 1401 1405 1409 1414 1420 1427 1433 1438 1443 1449 1456 1462 1467 1474 1480 1484
1346 1353 1354 1350 1345 1335 1330 1322 1327 1337 1344 1330 1334 1337 1340 1343 1349 1353 1360 1362 1366 1373 1375 1377 1380 1384 1387 1390 1394 1399 1402 1407 1412 1418 1423 1428 1434 1442 1448 1453 1460 1468 1474 1478
1334 1334 1347 1341 1350 1355 1327 1319 1316 1322 1356 1328 1330 1338 1340 1342 1362 1357 1356 1359 1363 1366 1366 1369 1374 1377 1383 1386 1387 1390 1394 1400 1406 1411 1415 1421 1427 1435 1440 1446 1455 1462 1467 1472
1341 1337 1336 1336 1344 1334 1315 1316 1316 1353 1356 1329 1329 1334 1338 1347 1350 1349 1349 1350 1356 1361 1361 1363 1366 1372 1376 1379 1381 1384 1387 1390 1396 1404 1411 1417 1424 1429 1434 1443 1450 1455 1461 1466
1365 1377 1352 1335 1343 1350 1319 1319 1332 1333 1330 1329 1333 1336 1339 1343 1346 1348 1349 1349 1351 1355 1355 1357 1359 1362 1367 1371 1374 1376 1380 1385 1392 1400 1408 1414 1419 1424 1430 1438 1444 1452 1456 1462
1370 1369 1373 1353 1341 1328 1322 1330 1330 1331 1330 1335 1338 1336 1338 1342 1345 1345 1347 1349 1351 1350 1349 1353 1356 1356 1358 1361 1365 1368 1372 1379 1388 1399 1406 1411 1416 1420 1427 1433 1440 1447 1452 1456
1360 1368 1363 1349 1321 1324 1333 1332 1330 1337 1342 1336 1340 1339 1338 1342 1347 1349 1349 1352 1354 1354 1353 1354 1355 1356 1358 1360 1359 1363 1369 1376 1386 1395 1401 1408 1412 1416 1424 1434 1439 1444 1448 1454
1369 1368 1363 1353 1335 1336 1337 1335 1334 1335 1345 1348 1345 1343 1345 1345 1351 1352 1354 1356 1357 1358 1358 1356 1353 1354 1357 1361 1364 1367 1371 1374 1385 1392 1397 1404 1410 1417 1423 1429 1436 1442 1447 1451
1373 1376 1369 1365 1362 1364 1359 1348 1348 1345 1347 1355 1352 1350 1351 1353 1356 1357 1359 1362 1363 1364 1366 1366 1360 1357 1361 1361 1365 1369 1372 1375 1384 1393 1401 1406 1409 1416 1423 1430 1432 1439 1446 1451